Overview Statistics Trail Chart Weather Telemetry Raw packets
 

This is the latest recevied weather packets stored in our database for station/object WA6ODQ-13. If no packets are shown the sender has not sent any weather packets the latest 10 day(s).

<< 57 58 59 60 61 62 63 >>
Time Temp. Humidity Pressure Rain* Wind** Luminosity Snow
1788281387 18.89° C 69% 1013.9 hPa 0 mm - 152 W/m² -
1788281082 18.89° C 70% 1013.9 hPa 0 mm - 130 W/m² -
1788280777 18.89° C 68% 1013.7 hPa 0 mm - 107 W/m² -
1788280472 19.44° C 68% 1013.5 hPa 0 mm - 106 W/m² -
1788280171 18.89° C 68% 1013.5 hPa 0 mm - 364 W/m² -
1788279866 18.89° C 67% 1013.6 hPa 0 mm - 334 W/m² -
1788279560 18.89° C 69% 1013.4 hPa 0 mm - 179 W/m² -
1788279259 18.33° C 70% 1013.7 hPa 0 mm - 101 W/m² -
1788278955 18.33° C 71% 1013.6 hPa 0 mm - 52 W/m² -
1788278650 17.78° C 71% 1013.3 hPa 0 mm - 53 W/m² -
1788278349 17.78° C 72% 1013.5 hPa 0 mm - 49 W/m² -
1788278044 17.78° C 72% 1013.5 hPa 0 mm - 74 W/m² -
1788277741 17.78° C 71% 1013.3 hPa 0 mm - 49 W/m² -
1788277440 17.78° C 72% 1013.6 hPa 0 mm - 44 W/m² -
1788277134 17.78° C 72% 1013.2 hPa 0 mm - 45 W/m² -
1788276834 17.78° C 72% 1013.1 hPa 0 mm - 38 W/m² -
1788276533 17.22° C 72% 1013 hPa 0 mm - 35 W/m² -
1788276228 17.22° C 73% 1013 hPa 0 mm - 33 W/m² -
1788275918 17.22° C 73% 1013 hPa 0 mm - 32 W/m² -
1788275612 16.67° C 74% 1012.7 hPa 0 mm - 31 W/m² -
1788275312 16.67° C 75% 1012.8 hPa 0 mm - 30 W/m² -
1788275009 16.67° C 75% 1012.6 hPa 0 mm - 29 W/m² -
1788274707 16.67° C 75% 1012.6 hPa 0 mm - 28 W/m² -
1788274406 16.11° C 76% 1012.4 hPa 0 mm - 27 W/m² -
1788274102 16.11° C 77% 1012.4 hPa 0 mm - 26 W/m² -

* Rain latest hour (hover to see other rain measurements)
** Current wind speed in m/s (hover to see current wind gust speed)